Home   Weather   Alta   Past weeks
Flag for Norway

Past Weather in Alta, Norway — Yesterday and Last 2 Weeks

Now
23 °F

Cold.


Feels Like: 18 °F
Forecast: 35 / 27 °F
Wind: 3 mph from South

Location: Alta Lufthavn

Current Time: Oct 20, 2019 at 10:53:04 am

Latest Report: Oct 20, 2019 at 9:00 am


Visibility: N/A

Pressure: 30.08 "Hg

Humidity: 78%

Dew Point: 17 °F

Location of AltaLocation

Past Weather in Alta — Graph

°F

Alta Temperature Yesterday

Maximum temperature yesterday: 33 °F (at 2:00 pm)
Minimum temperature yesterday: 23 °F (at 11:00 pm)
Average temperature yesterday: 29 °F

High & Low Weather Summary for the Past Weeks

 TemperatureHumidityPressure
High44 °F (Oct 6, 9:00 am)97% (Oct 12, 5:00 am)30.11 "Hg (Oct 12, 5:00 am)
Low18 °F (Oct 20, 4:00 am)64% (Oct 8, 1:00 pm)29.41 "Hg (Oct 11, 4:00 am)
Average34 °F84%29.83 "Hg
* Reported Oct 5 9:00 am — Oct 20 9:00 am, Alta. Weather by CustomWeather, © 2019

Note: Actual official high and low records may vary slightly from our data, if they occured in-between our weather recording intervals... More about our weather records

Advertising

Alta Weather History for the Previous 24 Hours

Scroll right to see more
 ConditionsComfort  
Time TempWeatherWind HumidityBarometerVisibility
9:00 am
Sun, Oct 20
23 °FCold.3 mph78%30.08 "HgN/A
8:00 am22 °FCold.2 mph85%30.09 "HgN/A
7:00 am22 °FCold.2 mph85%30.10 "HgN/A
6:00 am20 °FCold.2 mph87%30.11 "HgN/A
5:00 am19 °FCold.2 mph88%30.10 "HgN/A
4:00 am18 °FCold.2 mph90%30.10 "HgN/A
3:00 am19 °FCold.3 mph91%30.10 "HgN/A
2:00 am18 °FCold.2 mph93%30.09 "HgN/A
1:00 am21 °FCold.3 mph92%30.08 "HgN/A
12:00 am20 °FCold.3 mph92%30.07 "HgN/A
11:00 pm
Sat, Oct 19
23 °FCold.3 mph89%30.06 "HgN/A
8:00 pm24 °FCold.2 mph92%30.03 "HgN/A
7:00 pm26 °FChilly.5 mph91%30.02 "HgN/A
6:00 pm27 °FChilly.5 mph95%30.00 "HgN/A
4:00 pm30 °FChilly.No wind90%29.98 "HgN/A
3:00 pm31 °FChilly.2 mph89%29.96 "HgN/A
2:00 pm33 °FChilly.1 mph79%29.95 "HgN/A
1:00 pm32 °FChilly.2 mph81%29.94 "HgN/A
12:00 pm31 °FChilly.2 mph88%29.93 "HgN/A
11:00 am30 °FChilly.2 mph90%29.92 "HgN/A
10:00 am29 °FChilly.3 mph92%29.90 "HgN/A
Weather by CustomWeather, © 2019

See weather overview